EHI
0 0 0 0 0 0 0 0 0 0 0 0 0 0 0 0 0 0 0 0 0 0 0 0 0 0 0 0 0 0 0 0 0 0 1 1 1 0 0 0 0 0 0 0
0 0 0 0 0 0 0 0 0 0 0 0 0 0 0 0 0 0 0 0 0 0 0 0 0 0 0 0 0 0 0 0 0 0 0 0 0 0 0 0 0 0 0 0
0 0 0 0 0 0 0 0 0 0 0 0 0 0 0 0 0 0 0 0 0 0 0 0 0 0 0 0 0 0 0 0 0 0 0 0 0 0 0 0 0 0 0 0
0 0 0 0 0 0 0 0 0 0 0 0 0 0 0 0 0 0 0 0 0 0 0 0 0 0 0 0 0 0 0 0 0 0 0 0 0 0 0 0 0 0 0 0
0 0 0 0 0 0 0 0 0 0 0 0 0 0 0 0 0 0 0 0 0 0 0 0 0 0 0 0 0 0 0 0 0 0 0 0 0 0 0 0 0 0 0 0
0 0 0 0 0 0 0 0 0 0 0 0 0 0 0 0 0 0 0 0 0 0 0 0 0 0 0 0 0 0 0 0 0 0 0 0 0 0 0 0 0 0 0 0
0 0 0 0 0 0 0 0 0 0 0 0 0 0 0 0 0 0 0 0 0 0 0 0 0 0 0 0 0 0 0 0 0 0 0 0 0 0 0 0 0 0 0 0
0 0 0 0 0 0 0 0 0 0 0 0 0 0 0 0 0 0 0 0 0 0 0 0 0 0 0 0 0 0 0 0 0 0 0 0 0 0 0 0 0 0 0 0
0 0 0 0 0 0 0 0 0 0 0 0 0 0 0 0 0 0 0 0 0 0 0 0 0 0 0 0 0 0 0 0 0 0 0 0 0 0 0 0 0 0 0 0
0 0 0 0 0 0 0 0 0 0 0 0 0 0 0 0 0 0 0 0 0 0 0 0 0 0 0 0 0 0 0 0 0 0 0 0 0 0 0 0 0 0 0 0
0 0 0 0 0 0 0 0 0 0 0 0 0 0 0 0 0 0 0 0 0 0 0 0 0 0 0 0 0 0 0 0 0 0 0 0 0 0 0 0 0 0 0 0
0 0 0 0 0 0 0 0 0 0 0 0 0 0 0 0 0 0 0 0 0 0 0 0 0 0 0 0 0 0 0 0 0 0 0 0 0 0 0 0 0 0 0 0
0 0 0 0 0 0 0 0 0 0 0 0 0 0 0 0 0 0 0 0 0 0 0 0 0 0 0 0 0 0 0 0 0 0 0 0 0 0 0 0 0 0 0 0
0 0 0 0 0 0 0 0 0 0 0 0 0 0 0 0 0 0 0 0 0 0 0 0 0 0 0 0 0 0 0 0 0 0 0 0 0 0 0 0 0 0 0 0
0 0 0 0 0 0 0 0 0 0 0 0 0 0 0 0 0 0 0 0 0 0 0 0 0 0 0 0 0 0 0 0 0 0 0 0 0 0 0 0 0 0 0 0
0 0 0 0 0 0 0 0 0 0 0 0 0 0 0 0 0 0 0 0 0 0 0 0 0 0 0 0 0 0 0 0 0 0 0 0 0 0 0 0 0 0 0 0
0 0 0 0 0 0 0 0 0 0 0 0 0 0 0 0 0 0 0 0 0 0 0 0 0 0 0 0 0 0 0 0 0 0 0 0 0 0 0 0 0 0 0 0
0 0 0 0 0 0 0 0 0 0 0 0 0 0 0 0 0 0 0 0 0 0 0 0 0 0 0 0 0 0 0 0 0 0 0 0 0 0 0 0 0 0 0 0
0 0 0 0 0 0 0 0 0 0 0 0 0 0 0 0 0 0 0 0 0 0 0 0 0 0 0 0 0 0 0 0 0 0 0 0 0 0 0 0 0 0 0 0
0 0 0 0 0 0 0 0 0 0 0 0 0 0 0 0 0 0 0 0 0 0 0 0 0 0 0 0 0 0 0 0 0 0 0 0 0 0 0 0 0 0 0 0
0 0 0 0 0 0 0 0 0 0 0 0 0 0 0 0 0 0 0 0 0 0 0 0 0 0 0 0 0 0 0 0 0 0 0 0 0 0 0 0 0 0 0 0
0 0 0 0 0 0 0 0 0 0 0 0 0 0 0 0 0 0 0 0 0 0 0 0 0 0 0 0 0 0 0 0 0 0 0 0 0 0 0 0 0 0 0 0
0 0 0 0 0 0 0 0 0 0 0 0 0 0 0 0 0 0 0 0 0 0 0 0 0 0 0 0 0 0 0 0 0 0 0 0 0 0 0 0 0 0 0 0
0 0 0 0 0 0 0 0 0 0 0 0 0 0 0 0 0 0 0 0 0 0 0 0 0 0 0 0 0 0 0 0 0 0 0 0 0 0 0 0 0 0 0 0
0 0 0 0 0 0 0 0 0 0 0 0 0 0 0 0 0 0 0 0 0 0 0 0 0 0 0 0 0 0 0 0 0 0 0 0 0 0 0 0 0 0 0 0
0 0 0 0 0 0 0 0 0 0 0 0 0 0 0 0 0 0 0 0 0 0 0 0 0 0 0 0 0 0 0 0 0 0 0 0 0 0 0 0 0 0 0 0
Wind_Speed
4 3 5 7 9 6 4 4 6 6 3 3 5 7 7 3 1 1 1 1 2 2 1 2 2 1 3 4 4 4 3 3 3 3 2 2 3 2 3 4 5 7 7 8
2 6 8 6 6 6 6 5 5 4 2 2 2 5 4 2 1 1 1 1 1 1 3 3 2 2 2 3 3 3 3 3 3 2 2 2 2 2 3 3 3 5 6 7
4 5 4 5 5 4 5 5 4 3 2 1 2 4 4 3 2 2 3 3 2 3 3 3 3 2 1 2 2 2 2 3 3 3 2 2 1 1 2 2 2 3 5 6
4 5 4 3 3 3 4 3 2 2 1 2 1 1 3 2 4 4 4 3 3 3 3 3 3 2 2 1 2 2 3 3 2 2 2 3 2 2 3 3 3 3 4 5
3 2 2 2 3 2 3 2 2 2 1 1 1 1 3 2 3 3 3 3 3 3 4 3 3 2 2 2 2 2 2 2 2 1 2 2 2 2 2 2 3 3 3 5
3 3 1 2 2 2 2 1 1 1 1 1 1 2 3 2 2 1 2 3 4 4 5 5 4 4 4 4 3 2 3 2 1 1 1 2 2 2 2 2 3 3 3 3
2 2 1 0 2 2 2 3 2 3 3 1 1 2 2 3 1 1 2 3 3 4 4 5 5 6 6 6 5 4 4 3 2 1 0 1 1 2 3 3 3 3 3 3
1 2 2 0 1 1 1 3 3 2 2 1 2 0 2 2 1 3 3 3 4 4 4 4 5 5 5 5 5 5 4 4 3 2 1 1 1 1 2 3 3 3 3 3
2 2 2 1 1 2 0 1 2 4 1 1 1 1 2 3 4 4 4 4 3 3 4 4 4 4 4 4 4 4 3 3 3 3 3 3 2 1 2 2 2 2 2 3
1 0 2 2 2 2 1 1 3 3 2 1 2 2 3 2 1 2 3 3 3 4 4 4 4 4 4 4 4 4 4 4 3 4 4 4 3 2 1 1 2 2 2 3
2 2 2 2 1 1 2 2 2 2 2 3 1 4 3 5 4 4 2 2 2 2 2 3 3 4 4 5 5 5 5 5 4 4 4 4 3 3 2 1 2 2 2 3
1 3 1 2 3 2 1 1 2 3 0 2 2 4 2 3 3 4 3 2 2 2 2 2 3 3 4 5 5 5 4 5 4 4 4 4 4 4 4 3 2 2 2 2
2 4 2 4 4 3 1 1 1 3 3 2 2 4 2 1 3 3 3 2 1 2 3 3 3 4 4 4 4 4 4 4 4 4 4 5 4 4 5 4 4 3 3 3
3 2 4 4 4 3 2 2 2 4 3 3 4 4 3 2 2 2 1 1 2 2 3 3 3 3 3 3 3 4 4 4 4 4 4 4 4 4 4 4 4 3 3 3
3 1 1 3 3 2 3 4 3 4 6 6 5 5 6 6 5 4 2 2 2 2 2 2 2 3 3 3 4 4 4 5 5 5 4 4 4 4 4 4 4 4 3 3
2 1 1 3 3 2 3 5 4 4 4 5 4 5 4 3 3 3 3 3 2 0 0 1 2 3 3 3 3 4 4 4 4 4 4 4 4 5 4 4 4 4 4 4
1 2 1 3 4 3 5 6 6 4 4 6 7 7 3 3 5 6 5 4 3 1 0 0 1 2 2 2 3 3 3 4 4 3 4 4 4 4 4 4 4 4 4 4
3 2 2 1 2 3 6 2 4 4 4 4 4 4 6 5 5 4 4 5 3 2 1 0 1 2 2 2 3 3 3 4 4 4 4 4 4 4 4 4 4 4 3 3
3 4 2 1 2 7 6 3 3 4 4 4 5 4 3 3 3 1 2 3 4 3 2 1 0 0 1 2 3 3 4 4 4 5 5 5 5 4 4 4 4 3 3 3
3 3 3 2 2 5 4 2 1 3 4 4 6 6 5 5 2 5 3 2 2 1 1 1 1 1 2 2 3 3 3 4 4 5 5 5 5 4 4 4 4 3 3 3
2 2 3 3 4 8 6 2 3 3 6 3 6 7 7 7 6 4 4 2 2 2 1 1 1 1 1 2 2 3 3 4 4 4 4 5 5 4 4 4 3 3 3 3
6 5 5 4 4 9 3 5 6 7 2 2 4 5 6 4 3 3 4 3 2 2 1 1 1 0 1 1 1 2 3 4 4 4 4 5 5 4 4 4 4 3 3 3
6 8 6 8 8 4 5 6 5 3 3 3 4 3 5 5 4 4 3 3 2 2 2 1 1 0 1 1 1 1 3 4 4 4 4 4 5 4 4 3 3 3 3 2
4 4 3 5 8 6 6 5 4 4 4 4 4 4 5 5 5 4 3 3 2 2 1 1 1 0 1 2 2 2 3 3 3 4 4 4 4 4 4 3 3 3 3 3
6 4 4 6 7 4 5 6 5 3 3 3 3 4 6 6 5 5 4 4 3 2 1 1 2 1 1 2 2 2 2 3 3 3 3 4 4 4 4 3 3 3 3 3
7 9 8 9 8 6 7 5 5 5 5 5 5 4 4 6 6 5 4 4 3 3 2 2 2 2 2 1 2 2 2 2 2 3 3 3 3 3 3 3 4 5 5 7
Wind_Direction
185 187 221 221 211 224 230 243 265 264 258 253 255 273 290 303 297 234 229 193 231 243 175 123 137 143 105 109 126 134 134 153 164 163 160 165 180 187 196 192 186 185 182 180
176 239 242 233 225 228 235 251 270 287 270 253 287 296 314 315 260 222 177 167 212 113 89 104 113 109 122 131 123 130 148 140 144 157 165 163 175 193 205 199 193 196 193 190
208 250 245 233 234 225 232 231 247 258 315 298 322 344 1 7 41 53 62 74 58 97 96 90 77 59 107 119 136 145 141 127 132 138 133 127 122 159 187 205 202 215 209 202
238 260 257 244 233 219 253 230 206 237 312 314 52 331 334 0 36 50 45 38 44 66 82 84 77 63 67 93 99 108 115 114 117 123 128 154 176 192 205 201 211 218 212 206
248 263 229 228 245 216 231 221 223 238 227 327 18 135 308 356 25 27 25 37 46 47 64 70 70 77 78 82 88 90 94 103 96 119 153 159 193 201 199 189 210 218 219 216
254 266 236 235 266 219 215 60 3 47 81 359 291 156 305 306 275 359 25 40 49 45 47 52 47 48 43 43 52 65 75 80 119 128 137 161 182 187 189 196 218 225 228 225
323 308 298 327 5 4 58 85 46 20 24 299 360 105 274 279 256 120 81 46 49 50 50 52 48 47 43 42 41 48 58 45 32 64 29 219 197 205 206 209 216 225 232 242
93 305 294 298 185 229 242 140 147 164 192 302 9 113 272 307 59 81 92 86 66 53 51 52 51 53 48 43 39 42 48 35 24 22 342 320 280 235 221 217 216 223 229 231
161 272 295 251 221 158 134 200 186 133 108 61 343 329 331 30 49 59 71 73 68 61 56 52 51 49 46 42 34 34 44 35 29 25 20 7 334 277 239 232 225 226 237 240
135 157 307 323 30 359 186 171 79 99 126 105 314 266 231 233 133 84 80 78 59 51 49 47 43 38 34 33 29 32 37 37 31 26 15 1 349 331 307 278 267 259 254 247
83 103 333 15 35 308 5 36 82 99 134 143 213 271 229 193 179 158 141 111 87 70 60 45 35 28 28 28 30 28 24 25 22 17 8 4 359 357 357 331 289 273 264 253
89 110 353 292 286 243 221 195 136 136 197 132 158 267 307 179 167 142 128 105 77 69 54 45 45 35 29 27 22 21 16 16 10 5 4 2 3 3 1 352 331 324 301 269
89 101 57 349 337 345 324 300 128 119 109 138 161 258 345 98 116 124 128 119 84 62 47 39 43 36 24 16 12 10 9 3 357 1 4 3 2 3 355 345 339 339 324 308
95 107 162 195 237 242 264 266 168 126 145 191 213 225 253 200 154 159 141 120 96 71 55 40 32 20 8 7 6 2 1 358 356 3 3 1 355 350 343 336 331 329 321 313
85 109 232 264 269 236 240 247 218 185 188 191 213 211 223 209 193 184 161 118 93 65 41 35 21 2 357 2 359 357 359 358 356 1 360 349 344 345 345 343 336 333 327 320
66 117 7 318 317 286 275 259 241 226 208 207 209 247 231 191 159 154 155 147 142 137 40 12 10 3 355 353 351 355 356 352 352 358 349 340 347 348 345 342 338 338 333 322
86 116 74 291 315 347 282 242 210 214 204 181 206 222 177 164 174 180 178 172 185 195 160 350 338 338 333 333 344 345 340 345 357 358 350 347 347 345 339 339 341 336 326 322
148 123 129 292 5 254 254 271 196 200 235 212 201 186 177 187 181 176 172 173 187 194 200 255 326 339 339 343 348 348 351 360 5 0 353 346 342 339 339 344 340 332 325 320
162 147 136 129 276 281 288 260 183 182 258 222 192 182 169 132 88 290 214 180 187 193 195 210 243 348 357 356 350 1 2 3 4 354 346 338 334 336 339 337 330 324 326 327
83 112 127 146 225 251 257 235 163 110 274 234 178 174 167 140 170 239 214 174 169 162 138 120 59 40 22 350 358 17 6 2 349 337 335 334 332 334 330 324 322 325 329 325
122 122 161 187 241 265 254 196 102 157 249 209 174 173 172 186 205 194 161 157 153 143 143 121 98 64 341 341 11 18 2 344 330 330 336 339 340 336 330 329 329 331 333 334
179 175 193 173 214 258 212 143 184 221 236 163 169 174 176 183 160 149 154 155 147 139 134 131 124 347 340 355 23 6 339 326 332 337 342 341 340 338 340 340 338 339 336 334
201 193 191 198 218 248 197 204 220 189 185 191 176 178 160 159 169 168 168 164 166 165 166 157 155 249 340 347 16 340 317 327 339 343 340 337 338 342 343 342 339 339 338 331
252 189 193 254 260 252 237 237 232 202 194 193 177 166 161 168 175 174 170 173 178 178 182 167 143 168 299 321 331 307 315 334 345 342 335 336 339 342 344 342 337 338 335 330
228 186 210 255 269 281 257 226 216 203 177 164 166 170 171 165 176 181 182 189 189 187 187 174 181 205 263 305 319 327 336 348 343 334 330 333 335 334 336 337 333 326 311 312
202 186 189 227 224 205 239 227 192 184 193 184 173 174 173 172 179 181 189 193 188 189 187 190 200 215 247 262 291 317 332 336 332 329 328 327 329 329 329 328 329 340 339 337